SWA1954 KLAX-KPHX

Flight info

Callsign SWA1954
Flight time 1h 0m
Altitude 31000
Route DOTSS2 CNERY BLH HYDRR1
Aircraft B737/M-SDE2E3FGHIRWXY/LB1

Departure

Time 2026-04-21 20:49
Airport Los Angeles International Airport (KLAX)

Arrival

Time 2026-04-21 21:49
Airport Phoenix Sky Harbor International Airport (KPHX)
Time Latitude Longitude Altitude Speed Heading
2026-04-21 20:38 33.94789 -118.40133 115 ft 0 kts 188°
2026-04-21 20:42 33.94793 -118.40133 115 ft 2 kts 188°
2026-04-21 20:43 33.94807 -118.40130 115 ft 2 kts 188°
2026-04-21 20:43 33.94821 -118.40128 115 ft 2 kts 188°
2026-04-21 20:43 33.94833 -118.40129 115 ft 2 kts 138°
2026-04-21 20:43 33.94839 -118.40144 115 ft 2 kts 81°
2026-04-21 20:44 33.94836 -118.40161 116 ft 1 kts 85°
2026-04-21 20:44 33.94836 -118.40164 116 ft 0 kts 86°
2026-04-21 20:47 33.94836 -118.40156 115 ft 4 kts 83°
2026-04-21 20:47 33.94871 -118.40094 114 ft 13 kts 14°
2026-04-21 20:47 33.94927 -118.40008 113 ft 15 kts 81°
2026-04-21 20:48 33.94994 -118.39920 111 ft 16 kts 357°
2026-04-21 20:48 33.95038 -118.40006 112 ft 13 kts 261°
2026-04-21 20:48 33.95009 -118.40262 116 ft 61 kts 263°
2026-04-21 20:48 33.94933 -118.41025 122 ft 122 kts 263°
2026-04-21 20:49 33.94810 -118.42245 251 ft 159 kts 263°
2026-04-21 20:49 33.94704 -118.43538 845 ft 163 kts 263°
2026-04-21 20:49 33.94581 -118.44961 1363 ft 175 kts 263°
2026-04-21 20:49 33.94453 -118.46362 2112 ft 170 kts 262°
2026-04-21 20:50 33.94316 -118.47845 2402 ft 193 kts 264°
2026-04-21 20:50 33.94254 -118.49534 2823 ft 212 kts 268°
2026-04-21 20:50 33.94195 -118.51385 3307 ft 229 kts 265°
2026-04-21 20:50 33.94060 -118.53351 3770 ft 246 kts 263°
2026-04-21 20:51 33.93874 -118.55460 4228 ft 262 kts 263°
2026-04-21 20:51 33.93697 -118.57669 4888 ft 269 kts 263°
2026-04-21 20:51 33.93346 -118.59892 5626 ft 272 kts 251°
2026-04-21 20:51 33.92395 -118.61810 6377 ft 273 kts 226°
2026-04-21 20:52 33.90880 -118.63138 7119 ft 275 kts 207°
2026-04-21 20:52 33.89081 -118.63959 7861 ft 279 kts 194°
2026-04-21 20:52 33.87151 -118.64159 8622 ft 282 kts 179°
2026-04-21 20:52 33.85189 -118.63944 9385 ft 286 kts 172°
2026-04-21 20:53 33.83310 -118.63139 10124 ft 293 kts 152°
2026-04-21 20:53 33.81560 -118.61770 10642 ft 308 kts 148°
2026-04-21 20:53 33.79761 -118.60284 11122 ft 322 kts 148°
2026-04-21 20:53 33.77857 -118.58720 11599 ft 337 kts 149°
2026-04-21 20:54 33.75906 -118.57130 12196 ft 345 kts 149°
2026-04-21 20:54 33.73912 -118.55506 13009 ft 347 kts 150°
2026-04-21 20:54 33.71917 -118.53859 13778 ft 351 kts 148°
2026-04-21 20:54 33.70092 -118.51888 14531 ft 361 kts 136°
2026-04-21 20:55 33.68770 -118.49312 15259 ft 375 kts 119°
2026-04-21 20:55 33.67836 -118.46366 15964 ft 382 kts 115°
2026-04-21 20:55 33.66991 -118.43345 16629 ft 388 kts 114°
2026-04-21 20:55 33.66143 -118.40265 17273 ft 393 kts 114°
2026-04-21 20:56 33.65313 -118.37144 17900 ft 400 kts 111°
2026-04-21 20:56 33.64732 -118.33833 18524 ft 410 kts 104°
2026-04-21 20:56 33.64450 -118.30413 19140 ft 418 kts 99°
2026-04-21 20:56 33.64340 -118.26918 19752 ft 424 kts 96°
2026-04-21 20:57 33.64317 -118.23363 20354 ft 430 kts 95°
2026-04-21 20:57 33.64333 -118.19802 20941 ft 434 kts 95°
2026-04-21 20:57 33.64360 -118.16145 21535 ft 438 kts 95°
2026-04-21 20:57 33.64387 -118.12528 22111 ft 442 kts 95°
2026-04-21 20:58 33.64407 -118.08811 22708 ft 445 kts 95°
2026-04-21 20:58 33.64420 -118.05090 23264 ft 448 kts 95°
2026-04-21 20:58 33.64427 -118.01395 23792 ft 452 kts 95°
2026-04-21 20:58 33.64429 -117.97589 24333 ft 456 kts 95°
2026-04-21 20:59 33.64428 -117.93815 24865 ft 459 kts 95°
2026-04-21 20:59 33.64423 -117.89991 25390 ft 463 kts 95°
2026-04-21 20:59 33.64411 -117.86127 25927 ft 466 kts 96°
2026-04-21 20:59 33.64314 -117.82231 26458 ft 468 kts 98°
2026-04-21 21:00 33.63975 -117.78348 26980 ft 466 kts 105°
2026-04-21 21:00 33.63335 -117.74564 27490 ft 466 kts 109°
2026-04-21 21:00 33.62503 -117.70791 27979 ft 467 kts 112°
2026-04-21 21:00 33.61582 -117.67061 28457 ft 470 kts 113°
2026-04-21 21:01 33.60625 -117.63354 28936 ft 473 kts 113°
2026-04-21 21:01 33.59642 -117.59583 29426 ft 477 kts 113°
2026-04-21 21:01 33.58653 -117.55785 29892 ft 480 kts 113°
2026-04-21 21:01 33.57665 -117.51958 30420 ft 482 kts 112°
2026-04-21 21:02 33.56697 -117.48161 31009 ft 480 kts 112°
2026-04-21 21:02 33.55710 -117.44271 31204 ft 488 kts 112°
2026-04-21 21:02 33.54710 -117.40329 31223 ft 499 kts 112°
2026-04-21 21:02 33.53699 -117.36321 31229 ft 502 kts 112°
2026-04-21 21:03 33.52698 -117.32331 31645 ft 504 kts 112°
2026-04-21 21:03 33.51736 -117.28346 32265 ft 502 kts 110°
2026-04-21 21:03 33.50996 -117.24373 32852 ft 501 kts 105°
2026-04-21 21:03 33.50499 -117.20235 33264 ft 505 kts 100°
2026-04-21 21:04 33.50230 -117.16063 33672 ft 507 kts 97°
2026-04-21 21:04 33.50097 -117.11842 34074 ft 509 kts 95°
2026-04-21 21:04 33.50044 -117.07622 34545 ft 509 kts 94°
2026-04-21 21:04 33.50025 -117.03350 35019 ft 509 kts 93°
2026-04-21 21:05 33.50016 -116.99129 35202 ft 514 kts 92°
2026-04-21 21:05 33.50000 -116.94870 35236 ft 513 kts 92°
2026-04-21 21:05 33.49937 -116.86415 35217 ft 513 kts 94°
2026-04-21 21:06 33.49829 -116.77844 35232 ft 517 kts 94°
2026-04-21 21:06 33.49764 -116.73524 35113 ft 516 kts 94°
2026-04-21 21:06 33.49697 -116.69273 35038 ft 513 kts 94°
2026-04-21 21:07 33.49552 -116.60719 34945 ft 514 kts 94°
2026-04-21 21:07 33.49475 -116.56437 34843 ft 516 kts 94°
2026-04-21 21:07 33.49397 -116.52181 34635 ft 517 kts 94°
2026-04-21 21:08 33.49318 -116.47907 34394 ft 516 kts 94°
2026-04-21 21:08 33.49238 -116.43605 34189 ft 514 kts 94°
2026-04-21 21:08 33.49160 -116.39324 34034 ft 512 kts 94°
2026-04-21 21:08 33.49093 -116.35123 34076 ft 512 kts 94°
2026-04-21 21:09 33.49030 -116.30877 34294 ft 511 kts 95°
2026-04-21 21:09 33.48967 -116.26625 34560 ft 510 kts 95°
2026-04-21 21:09 33.48905 -116.22395 34861 ft 512 kts 95°
2026-04-21 21:09 33.48839 -116.18107 35024 ft 517 kts 95°
2026-04-21 21:10 33.48779 -116.09526 35052 ft 516 kts 91°
2026-04-21 21:10 33.49603 -116.01029 35007 ft 518 kts 79°
2026-04-21 21:11 33.51545 -115.92738 34996 ft 519 kts 73°
2026-04-21 21:11 33.53916 -115.84583 34974 ft 518 kts 71°
2026-04-21 21:12 33.56377 -115.76483 35008 ft 517 kts 70°
2026-04-21 21:12 33.58812 -115.68370 35038 ft 518 kts 71°
2026-04-21 21:13 33.60869 -115.60187 34949 ft 515 kts 79°
2026-04-21 21:13 33.61637 -115.51753 34928 ft 512 kts 90°
2026-04-21 21:14 33.61617 -115.43241 34990 ft 511 kts 94°
2026-04-21 21:14 33.61356 -115.34721 35071 ft 510 kts 95°
2026-04-21 21:15 33.61066 -115.26270 35073 ft 509 kts 95°
2026-04-21 21:15 33.60799 -115.17818 35051 ft 509 kts 95°
2026-04-21 21:16 33.60552 -115.09377 35029 ft 508 kts 94°
2026-04-21 21:16 33.60316 -115.00974 35000 ft 508 kts 94°
2026-04-21 21:17 33.60081 -114.92635 34984 ft 507 kts 94°
2026-04-21 21:17 33.59842 -114.84245 34975 ft 507 kts 94°
2026-04-21 21:18 33.59338 -114.75842 34964 ft 504 kts 99°
2026-04-21 21:18 33.58108 -114.67633 34958 ft 502 kts 104°
2026-04-21 21:19 33.57348 -114.63603 34835 ft 497 kts 105°
2026-04-21 21:19 33.56558 -114.59621 34431 ft 494 kts 106°
2026-04-21 21:19 33.55752 -114.55651 33793 ft 496 kts 106°
2026-04-21 21:19 33.54934 -114.51644 33068 ft 499 kts 106°
2026-04-21 21:20 33.54121 -114.47652 32311 ft 503 kts 105°
2026-04-21 21:20 33.53296 -114.43572 31511 ft 506 kts 105°
2026-04-21 21:20 33.52479 -114.39507 30518 ft 509 kts 105°
2026-04-21 21:20 33.51663 -114.35423 29605 ft 509 kts 105°
2026-04-21 21:21 33.50868 -114.31421 28742 ft 509 kts 106°
2026-04-21 21:21 33.50061 -114.27349 27840 ft 508 kts 106°
2026-04-21 21:21 33.49245 -114.23229 26878 ft 508 kts 106°
2026-04-21 21:21 33.48447 -114.19200 26105 ft 502 kts 106°
2026-04-21 21:22 33.47649 -114.15164 25460 ft 492 kts 106°
2026-04-21 21:22 33.46879 -114.11268 25015 ft 478 kts 106°
2026-04-21 21:22 33.46124 -114.07445 24935 ft 455 kts 106°
2026-04-21 21:22 33.45414 -114.03860 24921 ft 433 kts 107°
2026-04-21 21:23 33.44729 -114.00421 24914 ft 427 kts 107°
2026-04-21 21:23 33.44033 -113.96970 24907 ft 431 kts 107°
2026-04-21 21:23 33.43321 -113.93455 25016 ft 432 kts 107°
2026-04-21 21:23 33.42610 -113.89945 25056 ft 433 kts 107°
2026-04-21 21:24 33.41913 -113.86491 25067 ft 432 kts 106°
2026-04-21 21:24 33.41207 -113.82991 25069 ft 432 kts 106°
2026-04-21 21:24 33.40504 -113.79507 25053 ft 432 kts 106°
2026-04-21 21:24 33.39797 -113.76007 25047 ft 432 kts 106°
2026-04-21 21:25 33.39101 -113.72566 25045 ft 432 kts 106°
2026-04-21 21:25 33.38392 -113.69062 25044 ft 432 kts 106°
2026-04-21 21:25 33.37689 -113.65595 25033 ft 432 kts 106°
2026-04-21 21:25 33.36985 -113.62126 24799 ft 426 kts 106°
2026-04-21 21:26 33.36288 -113.58692 24280 ft 426 kts 106°
2026-04-21 21:26 33.35589 -113.55254 23821 ft 422 kts 106°
2026-04-21 21:26 33.34902 -113.51882 23304 ft 418 kts 106°
2026-04-21 21:26 33.34226 -113.48566 22784 ft 415 kts 106°
2026-04-21 21:27 33.33542 -113.45199 22255 ft 411 kts 105°
2026-04-21 21:27 33.32926 -113.41905 21983 ft 404 kts 104°
2026-04-21 21:27 33.32363 -113.38660 21946 ft 408 kts 104°
2026-04-21 21:27 33.31795 -113.35304 21936 ft 410 kts 103°
2026-04-21 21:28 33.31234 -113.31966 21935 ft 409 kts 104°
2026-04-21 21:28 33.30675 -113.28653 21815 ft 411 kts 104°
2026-04-21 21:28 33.29553 -113.22043 21132 ft 401 kts 104°
2026-04-21 21:29 33.29051 -113.18806 20616 ft 399 kts 102°
2026-04-21 21:29 33.28583 -113.15537 20075 ft 398 kts 102°
2026-04-21 21:29 33.28136 -113.12313 19502 ft 396 kts 102°
2026-04-21 21:29 33.27702 -113.09060 19048 ft 390 kts 100°
2026-04-21 21:30 33.27486 -113.05916 18918 ft 377 kts 95°
2026-04-21 21:30 33.27457 -113.02805 18654 ft 370 kts 91°
2026-04-21 21:30 33.27523 -112.99764 18396 ft 366 kts 90°
2026-04-21 21:30 33.27624 -112.96721 18138 ft 366 kts 90°
2026-04-21 21:31 33.27729 -112.93698 17882 ft 364 kts 90°
2026-04-21 21:31 33.27826 -112.90693 17626 ft 362 kts 90°
2026-04-21 21:31 33.27913 -112.87726 17376 ft 356 kts 90°
2026-04-21 21:31 33.27990 -112.84807 17062 ft 350 kts 90°
2026-04-21 21:32 33.28066 -112.81909 16994 ft 343 kts 90°
2026-04-21 21:32 33.28231 -112.79099 16802 ft 340 kts 86°
2026-04-21 21:32 33.28495 -112.76328 16559 ft 337 kts 85°
2026-04-21 21:32 33.28797 -112.73538 16312 ft 335 kts 85°
2026-04-21 21:33 33.29090 -112.70800 16068 ft 334 kts 85°
2026-04-21 21:33 33.29370 -112.68059 15824 ft 332 kts 85°
2026-04-21 21:33 33.29636 -112.65336 15575 ft 331 kts 85°
2026-04-21 21:33 33.29895 -112.62611 15325 ft 329 kts 86°
2026-04-21 21:34 33.30150 -112.59890 15074 ft 327 kts 86°
2026-04-21 21:34 33.30397 -112.57216 14826 ft 325 kts 86°
2026-04-21 21:34 33.30644 -112.54538 14584 ft 323 kts 86°
2026-04-21 21:34 33.30888 -112.51888 14307 ft 323 kts 86°
2026-04-21 21:35 33.31134 -112.49227 13934 ft 320 kts 86°
2026-04-21 21:35 33.31374 -112.46616 13565 ft 318 kts 86°
2026-04-21 21:35 33.31614 -112.43986 13198 ft 315 kts 86°
2026-04-21 21:35 33.31850 -112.41402 12837 ft 313 kts 86°
2026-04-21 21:36 33.32087 -112.38826 12476 ft 311 kts 86°
2026-04-21 21:36 33.32323 -112.36250 12115 ft 308 kts 86°
2026-04-21 21:36 33.32550 -112.33742 11760 ft 306 kts 86°
2026-04-21 21:36 33.32780 -112.31236 11405 ft 304 kts 86°
2026-04-21 21:37 33.33009 -112.28738 11049 ft 302 kts 86°
2026-04-21 21:37 33.33235 -112.26240 10691 ft 300 kts 86°
2026-04-21 21:37 33.33458 -112.23789 10333 ft 298 kts 86°
2026-04-21 21:37 33.33679 -112.21343 10069 ft 292 kts 86°
2026-04-21 21:38 33.33896 -112.18962 9897 ft 283 kts 87°
2026-04-21 21:38 33.34105 -112.16618 9496 ft 285 kts 87°
2026-04-21 21:38 33.34312 -112.14284 9284 ft 278 kts 87°
2026-04-21 21:38 33.34515 -112.12051 9200 ft 266 kts 87°
2026-04-21 21:39 33.34707 -112.09905 9111 ft 255 kts 89°
2026-04-21 21:39 33.34773 -112.07835 8928 ft 249 kts 94°
2026-04-21 21:39 33.34749 -112.05733 8590 ft 251 kts 95°
2026-04-21 21:39 33.34703 -112.03648 8297 ft 251 kts 95°
2026-04-21 21:40 33.34665 -112.01579 8025 ft 251 kts 95°
2026-04-21 21:40 33.34636 -111.99509 7755 ft 250 kts 94°
2026-04-21 21:40 33.34613 -111.97445 7500 ft 247 kts 94°
2026-04-21 21:40 33.34589 -111.95405 7238 ft 246 kts 94°
2026-04-21 21:41 33.34560 -111.93361 7031 ft 244 kts 94°
2026-04-21 21:41 33.34566 -111.91340 6983 ft 245 kts 91°
2026-04-21 21:41 33.34622 -111.89287 6979 ft 248 kts 90°
2026-04-21 21:41 33.34692 -111.87244 6838 ft 242 kts 90°
2026-04-21 21:42 33.34759 -111.85236 6382 ft 244 kts 91°
2026-04-21 21:42 33.34804 -111.83228 5966 ft 243 kts 91°
2026-04-21 21:42 33.34843 -111.81204 5566 ft 241 kts 91°
2026-04-21 21:42 33.34887 -111.79206 5183 ft 239 kts 91°
2026-04-21 21:43 33.35078 -111.77253 4776 ft 240 kts 77°
2026-04-21 21:43 33.35759 -111.75440 4383 ft 241 kts 56°
2026-04-21 21:43 33.37033 -111.74200 4241 ft 238 kts 22°
2026-04-21 21:43 33.38636 -111.73853 4254 ft 238 kts 359°
2026-04-21 21:44 33.40263 -111.74107 4249 ft 234 kts 337°
2026-04-21 21:44 33.41564 -111.75169 4248 ft 219 kts 304°
2026-04-21 21:44 33.42285 -111.76734 4238 ft 216 kts 286°
2026-04-21 21:44 33.42662 -111.78461 4241 ft 212 kts 275°
2026-04-21 21:45 33.42786 -111.80180 4221 ft 199 kts 269°
2026-04-21 21:45 33.42820 -111.81802 4036 ft 195 kts 266°
2026-04-21 21:45 33.42836 -111.83415 3786 ft 192 kts 266°
2026-04-21 21:45 33.42853 -111.84964 3537 ft 181 kts 265°
2026-04-21 21:46 33.42863 -111.86404 3306 ft 171 kts 266°
2026-04-21 21:46 33.42869 -111.87798 3082 ft 161 kts 266°
2026-04-21 21:46 33.42870 -111.89127 2864 ft 156 kts 264°
2026-04-21 21:46 33.42873 -111.90382 2675 ft 151 kts 265°
2026-04-21 21:47 33.42876 -111.91619 2484 ft 145 kts 265°
2026-04-21 21:47 33.42877 -111.92799 2295 ft 139 kts 266°
2026-04-21 21:47 33.42878 -111.93955 2111 ft 138 kts 266°
2026-04-21 21:47 33.42880 -111.95086 1955 ft 138 kts 267°
2026-04-21 21:48 33.42892 -111.96243 1774 ft 139 kts 267°
2026-04-21 21:48 33.42883 -111.97407 1567 ft 139 kts 267°
2026-04-21 21:48 33.42884 -111.98557 1401 ft 138 kts 268°
2026-04-21 21:48 33.42889 -111.99696 1227 ft 137 kts 267°
2026-04-21 21:49 33.42884 -112.00831 1127 ft 122 kts 263°
2026-04-21 21:49 33.42883 -112.01498 1127 ft 55 kts 270°
2026-04-21 21:49 33.42883 -112.01915 1124 ft 41 kts 271°
2026-04-21 21:49 33.42927 -112.02150 1125 ft 15 kts 310°
2026-04-21 21:50 33.42995 -112.02102 1125 ft 18 kts 87°
2026-04-21 21:50 33.42994 -112.01914 1126 ft 26 kts 90°
2026-04-21 21:50 33.42994 -112.01673 1127 ft 31 kts 90°
2026-04-21 21:50 33.42995 -112.01392 1129 ft 35 kts 89°
2026-04-21 21:51 33.42994 -112.01096 1129 ft 35 kts 90°
2026-04-21 21:51 33.42994 -112.00830 1129 ft 27 kts 90°
2026-04-21 21:51 33.43022 -112.00637 1129 ft 19 kts 31°
2026-04-21 21:51 33.43164 -112.00629 1132 ft 17 kts 359°
2026-04-21 21:52 33.43216 -112.00513 1132 ft 21 kts 90°
2026-04-21 21:52 33.43217 -112.00285 1129 ft 29 kts 87°
2026-04-21 21:52 33.43215 -112.00040 1129 ft 29 kts 90°
2026-04-21 21:52 33.43215 -111.99799 1128 ft 25 kts 90°
2026-04-21 21:53 33.43215 -111.99638 1128 ft 18 kts 90°
2026-04-21 21:53 33.43275 -111.99548 1128 ft 14 kts 18°
2026-04-21 21:53 33.43376 -111.99532 1129 ft 11 kts
2026-04-21 21:53 33.43439 -111.99531 1130 ft 3 kts 20°
2026-04-21 21:54 33.43444 -111.99499 1130 ft 4 kts 89°
2026-04-21 21:54 33.43444 -111.99480 1130 ft 0 kts 89°